Time,TemperatureF,DewpointF,PressureIn,WindDirection,WindDirectionDegrees,WindSpeedMPH,WindSpeedGustMPH,Humidity,HourlyPrecipIn,Conditions,Clouds,dailyrainin,SoftwareType,DateUTC
2013-08-02 00:02:00,77.0,74.0,29.95,WNW,297,1.0,4.0,92,0.00,,,0.44,,2013-08-02 04:02:00,
2013-08-02 00:22:00,77.0,75.0,29.95,West,262,0.0,2.0,93,0.00,,,0.44,,2013-08-02 04:22:00,
2013-08-02 00:33:00,77.0,75.0,29.95,West,267,1.0,3.0,93,0.00,,,0.44,,2013-08-02 04:33:00,
2013-08-02 00:43:00,77.0,75.0,29.96,WNW,297,1.0,3.0,93,0.00,,,0.44,,2013-08-02 04:43:00,
2013-08-02 00:53:00,77.0,75.0,29.96,East,80,0.0,4.0,94,0.00,,,0.44,,2013-08-02 04:53:00,
2013-08-02 01:02:00,77.0,75.0,29.95,North,354,0.0,4.0,94,0.00,,,0.44,,2013-08-02 05:02:00,
2013-08-02 01:12:00,77.0,75.0,29.95,North,358,1.0,3.0,94,0.00,,,0.44,,2013-08-02 05:12:00,
2013-08-02 01:32:00,77.0,75.0,29.95,WNW,291,1.0,3.0,94,0.00,,,0.44,,2013-08-02 05:32:00,
2013-08-02 01:43:00,77.0,75.0,29.95,WNW,293,1.0,3.0,94,0.00,,,0.44,,2013-08-02 05:43:00,
2013-08-02 01:53:00,77.0,75.0,29.94,NE,54,0.0,3.0,94,0.00,,,0.44,,2013-08-02 05:53:00,
2013-08-02 02:02:00,77.0,75.0,29.94,NNW,330,1.0,7.0,94,0.00,,,0.44,,2013-08-02 06:02:00,
2013-08-02 02:12:00,77.0,75.0,29.93,NNW,335,1.0,3.0,94,0.00,,,0.44,,2013-08-02 06:12:00,
2013-08-02 02:22:00,77.0,75.0,29.93,NNW,335,1.0,3.0,94,0.00,,,0.44,,2013-08-02 06:22:00,
2013-08-02 02:33:00,77.0,75.0,29.92,WNW,285,1.0,2.0,94,0.00,,,0.44,,2013-08-02 06:33:00,
2013-08-02 02:43:00,77.0,75.0,29.92,WSW,253,1.0,3.0,94,0.00,,,0.44,,2013-08-02 06:43:00,
2013-08-02 02:52:00,77.0,75.0,29.92,East,79,1.0,2.0,94,0.00,,,0.44,,2013-08-02 06:52:00,
2013-08-02 03:02:00,76.0,74.0,29.91,West,263,0.0,2.0,94,0.00,,,0.44,,2013-08-02 07:02:00,
2013-08-02 03:12:00,76.0,74.0,29.91,NNW,336,0.0,4.0,94,0.00,,,0.44,,2013-08-02 07:12:00,
2013-08-02 03:22:00,76.0,74.0,29.91,WNW,290,0.0,4.0,94,0.00,,,0.44,,2013-08-02 07:22:00,
2013-08-02 03:33:00,76.0,74.0,29.91,WNW,300,0.0,5.0,94,0.00,,,0.44,,2013-08-02 07:33:00,
2013-08-02 03:44:00,76.0,74.0,29.91,WNW,283,1.0,3.0,95,0.00,,,0.44,,2013-08-02 07:44:00,
2013-08-02 03:53:00,76.0,74.0,29.91,NNE,23,0.0,2.0,95,0.00,,,0.44,,2013-08-02 07:53:00,
2013-08-02 04:02:00,76.0,74.0,29.91,NNW,345,0.0,2.0,95,0.00,,,0.44,,2013-08-02 08:02:00,
2013-08-02 04:12:00,76.0,74.0,29.92,SE,127,0.0,5.0,95,0.00,,,0.44,,2013-08-02 08:12:00,
2013-08-02 04:22:00,75.0,73.0,29.91,West,281,0.0,2.0,95,0.00,,,0.44,,2013-08-02 08:22:00,
2013-08-02 04:33:00,75.0,73.0,29.91,NE,47,0.0,2.0,95,0.00,,,0.44,,2013-08-02 08:33:00,
2013-08-02 04:43:00,75.0,73.0,29.91,SSW,207,0.0,3.0,95,0.00,,,0.44,,2013-08-02 08:43:00,
2013-08-02 04:54:00,75.0,73.0,29.91,SSW,205,0.0,0.0,95,0.00,,,0.44,,2013-08-02 08:54:00,
2013-08-02 05:02:00,74.0,73.0,29.92,WSW,246,0.0,0.0,96,0.00,,,0.44,,2013-08-02 09:02:00,
2013-08-02 05:12:00,74.0,73.0,29.92,WSW,246,0.0,0.0,96,0.00,,,0.44,,2013-08-02 09:12:00,
2013-08-02 05:23:00,74.0,73.0,29.93,WSW,246,0.0,0.0,96,0.00,,,0.44,,2013-08-02 09:23:00,
2013-08-02 05:33:00,74.0,73.0,29.93,WSW,245,0.0,0.0,96,0.00,,,0.25,,2013-08-02 09:33:00,
2013-08-02 05:43:00,74.0,73.0,29.94,WSW,246,0.0,0.0,97,0.00,,,0.25,,2013-08-02 09:43:00,
2013-08-02 05:53:00,73.0,72.0,29.95,WSW,246,0.0,0.0,97,0.00,,,0.25,,2013-08-02 09:53:00,
2013-08-02 06:03:00,73.0,72.0,29.95,WSW,245,0.0,0.0,97,0.00,,,0.25,,2013-08-02 10:03:00,
2013-08-02 06:12:00,73.0,72.0,29.96,WSW,246,0.0,0.0,97,0.00,,,0.25,,2013-08-02 10:12:00,
2013-08-02 06:23:00,73.0,72.0,29.96,WSW,246,0.0,0.0,97,0.00,,,0.25,,2013-08-02 10:23:00,
2013-08-02 06:33:00,73.0,72.0,29.96,WSW,246,0.0,0.0,97,0.00,,,0.14,,2013-08-02 10:33:00,
2013-08-02 06:43:00,74.0,73.0,29.96,WSW,246,0.0,0.0,97,0.00,,,0.14,,2013-08-02 10:43:00,
2013-08-02 06:52:00,74.0,73.0,29.97,WSW,245,0.0,0.0,97,0.00,,,0.14,,2013-08-02 10:52:00,
2013-08-02 07:02:00,74.0,73.0,29.97,WSW,245,0.0,0.0,97,0.00,,,0.14,,2013-08-02 11:02:00,
2013-08-02 07:12:00,74.0,73.0,29.98,WSW,246,0.0,0.0,98,0.00,,,0.14,,2013-08-02 11:12:00,
2013-08-02 07:23:00,74.0,73.0,29.98,WSW,246,0.0,0.0,98,0.00,,,0.14,,2013-08-02 11:23:00,
2013-08-02 07:33:00,74.0,73.0,29.98,WSW,246,0.0,0.0,98,0.00,,,0.10,,2013-08-02 11:33:00,
2013-08-02 07:43:00,74.0,73.0,29.98,WSW,245,0.0,0.0,98,0.00,,,0.10,,2013-08-02 11:43:00,
2013-08-02 07:52:00,74.0,73.0,29.98,WSW,245,0.0,0.0,98,0.00,,,0.10,,2013-08-02 11:52:00,
2013-08-02 08:02:00,75.0,74.0,29.99,WSW,246,0.0,0.0,98,0.00,,,0.10,,2013-08-02 12:02:00,
2013-08-02 08:12:00,75.0,74.0,29.99,WSW,245,0.0,0.0,98,0.00,,,0.10,,2013-08-02 12:12:00,
2013-08-02 08:22:00,75.0,74.0,29.99,West,262,0.0,2.0,97,0.00,,,0.10,,2013-08-02 12:22:00,
2013-08-02 08:43:00,77.0,76.0,29.99,WSW,243,0.0,1.0,96,0.00,,,0.09,,2013-08-02 12:43:00,
2013-08-02 08:52:00,78.0,76.0,30.00,WNW,288,1.0,3.0,94,0.00,,,0.09,,2013-08-02 12:52:00,
2013-08-02 09:03:00,79.0,76.0,30.00,West,260,1.0,3.0,91,0.00,,,0.09,,2013-08-02 13:03:00,
2013-08-02 09:12:00,80.0,76.0,30.01,West,262,1.0,4.0,89,0.00,,,0.09,,2013-08-02 13:12:00,
2013-08-02 09:22:00,80.0,76.0,30.01,SSE,162,1.0,3.0,88,0.00,,,0.09,,2013-08-02 13:22:00,
2013-08-02 09:33:00,81.0,77.0,30.01,West,260,1.0,4.0,87,0.00,,,0.09,,2013-08-02 13:33:00,
2013-08-02 09:43:00,81.0,76.0,30.01,NW,310,0.0,3.0,86,0.00,,,0.09,,2013-08-02 13:43:00,
2013-08-02 10:02:00,82.0,77.0,30.01,SW,227,1.0,3.0,86,0.00,,,0.09,,2013-08-02 14:02:00,
2013-08-02 10:12:00,83.0,78.0,30.02,North,355,0.0,2.0,85,0.00,,,0.09,,2013-08-02 14:12:00,
2013-08-02 10:22:00,84.0,78.0,30.02,WSW,245,1.0,2.0,82,0.00,,,0.09,,2013-08-02 14:22:00,
2013-08-02 10:32:00,84.0,77.0,30.02,NNW,345,2.0,4.0,80,0.00,,,0.08,,2013-08-02 14:32:00,
2013-08-02 10:43:00,83.0,77.0,30.02,West,260,1.0,3.0,83,0.00,,,0.08,,2013-08-02 14:43:00,
2013-08-02 10:53:00,83.0,78.0,30.01,ENE,59,0.0,2.0,84,0.00,,,0.08,,2013-08-02 14:53:00,
2013-08-02 11:03:00,84.0,77.0,30.01,West,263,2.0,5.0,80,0.00,,,0.08,,2013-08-02 15:03:00,
2013-08-02 11:12:00,85.0,78.0,30.01,NW,316,2.0,5.0,81,0.00,,,0.08,,2013-08-02 15:12:00,
2013-08-02 11:22:00,86.0,79.0,30.00,NE,44,2.0,5.0,79,0.00,,,0.08,,2013-08-02 15:22:00,
2013-08-02 11:32:00,87.0,80.0,30.00,SSE,158,3.0,7.0,79,0.00,,,0.04,,2013-08-02 15:32:00,
2013-08-02 11:43:00,87.0,79.0,30.01,SE,146,3.0,5.0,77,0.00,,,0.04,,2013-08-02 15:43:00,
2013-08-02 11:52:00,87.0,78.0,30.01,SSE,150,1.0,6.0,76,0.00,,,0.04,,2013-08-02 15:52:00,
2013-08-02 12:02:00,88.0,79.0,30.01,SSE,156,2.0,6.0,75,0.00,,,0.04,,2013-08-02 16:02:00,
2013-08-02 12:12:00,87.0,78.0,30.02,WNW,299,2.0,6.0,74,0.00,,,0.04,,2013-08-02 16:12:00,
2013-08-02 12:22:00,87.0,78.0,30.02,WNW,299,2.0,6.0,74,0.00,,,0.04,,2013-08-02 16:22:00,
2013-08-02 12:32:00,85.0,78.0,30.02,East,81,1.0,3.0,79,0.00,,,0.01,,2013-08-02 16:32:00,
2013-08-02 12:43:00,84.0,78.0,30.02,SE,134,1.0,4.0,81,0.00,,,0.01,,2013-08-02 16:43:00,
2013-08-02 12:52:00,83.0,77.0,30.02,ESE,122,1.0,5.0,82,0.00,,,0.01,,2013-08-02 16:52:00,
2013-08-02 13:02:00,84.0,78.0,30.02,WNW,294,1.0,5.0,83,0.00,,,0.01,,2013-08-02 17:02:00,
2013-08-02 13:12:00,85.0,78.0,30.02,NW,319,1.0,4.0,80,0.00,,,0.01,,2013-08-02 17:12:00,
2013-08-02 13:22:00,86.0,78.0,30.01,WSW,253,2.0,4.0,76,0.00,,,0.01,,2013-08-02 17:22:00,
2013-08-02 13:35:00,87.0,78.0,30.01,NNW,328,1.0,4.0,76,0.00,,,0.00,,2013-08-02 17:35:00,
2013-08-02 13:43:00,88.0,79.0,30.01,SE,134,2.0,6.0,74,0.00,,,0.00,,2013-08-02 17:43:00,
2013-08-02 13:52:00,88.0,79.0,30.01,NW,319,1.0,6.0,75,0.00,,,0.00,,2013-08-02 17:52:00,
2013-08-02 14:02:00,88.0,79.0,30.01,NW,311,1.0,8.0,75,0.00,,,0.00,,2013-08-02 18:02:00,
2013-08-02 14:12:00,87.0,77.0,30.02,SE,131,4.0,7.0,72,0.00,,,0.00,,2013-08-02 18:12:00,
2013-08-02 14:22:00,88.0,78.0,30.01,SSW,205,3.0,5.0,73,0.00,,,0.00,,2013-08-02 18:22:00,
2013-08-02 14:43:00,88.0,78.0,30.02,WNW,293,3.0,7.0,73,0.00,,,0.00,,2013-08-02 18:43:00,
2013-08-02 14:52:00,88.0,79.0,30.01,West,271,2.0,9.0,74,0.00,,,0.00,,2013-08-02 18:52:00,
2013-08-02 15:22:00,83.0,77.0,30.01,NE,34,2.0,8.0,83,0.00,,,0.00,,2013-08-02 19:22:00,
2013-08-02 15:32:00,83.0,77.0,30.01,WNW,284,4.0,9.0,81,0.00,,,0.00,,2013-08-02 19:32:00,
2013-08-02 15:43:00,84.0,78.0,30.00,NNE,29,4.0,11.0,81,0.00,,,0.00,,2013-08-02 19:43:00,
2013-08-02 15:52:00,84.0,78.0,30.00,SW,219,3.0,9.0,82,0.00,,,0.00,,2013-08-02 19:52:00,
2013-08-02 16:02:00,84.0,78.0,29.99,East,81,3.0,13.0,82,0.00,,,0.00,,2013-08-02 20:02:00,
2013-08-02 16:12:00,84.0,78.0,29.99,NNW,332,2.0,8.0,81,0.00,,,0.00,,2013-08-02 20:12:00,
2013-08-02 16:22:00,85.0,78.0,30.00,SE,141,3.0,7.0,79,0.00,,,0.00,,2013-08-02 20:22:00,
2013-08-02 16:32:00,85.0,78.0,30.00,SE,141,3.0,7.0,79,0.00,,,0.00,,2013-08-02 20:32:00,
2013-08-02 16:43:00,84.0,78.0,29.99,ENE,70,2.0,7.0,83,0.00,,,0.00,,2013-08-02 20:43:00,
2013-08-02 16:52:00,84.0,78.0,29.99,South,178,3.0,7.0,82,0.00,,,0.00,,2013-08-02 20:52:00,
2013-08-02 17:03:00,85.0,78.0,29.99,NNE,15,2.0,11.0,80,0.00,,,0.00,,2013-08-02 21:03:00,
2013-08-02 17:12:00,85.0,78.0,29.99,West,279,3.0,9.0,79,0.00,,,0.00,,2013-08-02 21:12:00,
2013-08-02 17:22:00,86.0,79.0,29.99,SE,137,3.0,8.0,79,0.00,,,0.00,,2013-08-02 21:22:00,
2013-08-02 17:43:00,85.0,78.0,29.99,SE,139,4.0,9.0,80,0.00,,,0.00,,2013-08-02 21:43:00,
2013-08-02 17:53:00,85.0,78.0,29.99,East,83,4.0,7.0,79,0.00,,,0.00,,2013-08-02 21:53:00,
2013-08-02 18:03:00,83.0,77.0,29.99,East,86,2.0,9.0,83,0.00,,,0.00,,2013-08-02 22:03:00,
2013-08-02 18:22:00,82.0,77.0,29.99,East,82,3.0,9.0,85,0.00,,,0.00,,2013-08-02 22:22:00,
2013-08-02 18:32:00,81.0,76.0,29.98,NW,319,3.0,8.0,86,0.00,,,0.00,,2013-08-02 22:32:00,
2013-08-02 18:43:00,81.0,77.0,29.98,WNW,292,2.0,8.0,88,0.00,,,0.00,,2013-08-02 22:43:00,
2013-08-02 18:52:00,81.0,77.0,30.00,WNW,297,2.0,7.0,89,0.00,,,0.00,,2013-08-02 22:52:00,
2013-08-02 19:02:00,81.0,77.0,29.99,NW,308,2.0,6.0,89,0.00,,,0.00,,2013-08-02 23:02:00,
2013-08-02 19:12:00,81.0,78.0,30.01,WNW,297,2.0,6.0,90,0.00,,,0.00,,2013-08-02 23:12:00,
2013-08-02 19:22:00,81.0,78.0,30.01,SW,224,2.0,7.0,90,0.00,,,0.00,,2013-08-02 23:22:00,
2013-08-02 19:32:00,80.0,77.0,30.02,SE,144,2.0,5.0,90,0.00,,,0.00,,2013-08-02 23:32:00,
2013-08-02 19:43:00,80.0,77.0,30.01,WNW,298,3.0,8.0,90,0.00,,,0.00,,2013-08-02 23:43:00,
2013-08-02 19:53:00,80.0,77.0,30.01,South,169,1.0,7.0,90,0.00,,,0.00,,2013-08-02 23:53:00,
2013-08-02 20:02:00,80.0,77.0,30.01,SW,236,1.0,5.0,90,0.00,,,0.00,,2013-08-03 00:02:00,
2013-08-02 20:12:00,81.0,78.0,30.02,WNW,285,3.0,8.0,91,0.00,,,0.00,,2013-08-03 00:12:00,
2013-08-02 20:22:00,81.0,78.0,30.02,NW,311,1.0,9.0,91,0.00,,,0.00,,2013-08-03 00:22:00,
2013-08-02 20:33:00,81.0,78.0,30.03,NNW,328,2.0,6.0,91,0.00,,,0.00,,2013-08-03 00:33:00,
2013-08-02 20:43:00,81.0,78.0,30.03,NNW,327,3.0,8.0,91,0.00,,,0.00,,2013-08-03 00:43:00,
2013-08-02 20:52:00,80.0,77.0,30.03,NW,312,2.0,4.0,91,0.00,,,0.00,,2013-08-03 00:52:00,
2013-08-02 21:03:00,80.0,77.0,30.03,NE,46,1.0,6.0,91,0.00,,,0.00,,2013-08-03 01:03:00,
2013-08-02 21:12:00,80.0,77.0,30.03,NE,46,1.0,6.0,91,0.00,,,0.00,,2013-08-03 01:12:00,
2013-08-02 21:22:00,80.0,77.0,30.02,NNE,23,2.0,5.0,91,0.00,,,0.00,,2013-08-03 01:22:00,
2013-08-02 21:33:00,80.0,77.0,30.02,NNE,23,2.0,5.0,91,0.00,,,0.00,,2013-08-03 01:33:00,
2013-08-02 21:42:00,80.0,77.0,30.02,NNE,23,2.0,5.0,91,0.00,,,0.00,,2013-08-03 01:42:00,
2013-08-02 21:53:00,80.0,77.0,30.03,WNW,293,2.0,6.0,91,0.00,,,0.00,,2013-08-03 01:53:00,
2013-08-02 22:02:00,80.0,77.0,30.03,South,177,3.0,9.0,90,0.00,,,0.00,,2013-08-03 02:02:00,
2013-08-02 22:12:00,80.0,77.0,30.04,NW,325,0.0,5.0,90,0.00,,,0.00,,2013-08-03 02:12:00,
2013-08-02 22:32:00,80.0,76.0,30.04,NW,314,1.0,6.0,89,0.00,,,0.00,,2013-08-03 02:32:00,
2013-08-02 22:43:00,80.0,76.0,30.04,NW,319,2.0,4.0,89,0.00,,,0.00,,2013-08-03 02:43:00,
2013-08-02 22:52:00,80.0,76.0,30.04,WNW,295,1.0,7.0,89,0.00,,,0.00,,2013-08-03 02:52:00,
2013-08-02 23:03:00,80.0,76.0,30.04,East,86,1.0,4.0,88,0.00,,,0.00,,2013-08-03 03:03:00,
2013-08-02 23:22:00,80.0,76.0,30.04,NNE,23,2.0,4.0,89,0.00,,,0.00,,2013-08-03 03:22:00,
2013-08-02 23:32:00,80.0,76.0,30.04,East,86,1.0,4.0,89,0.00,,,0.00,,2013-08-03 03:32:00,
2013-08-02 23:43:00,80.0,76.0,30.04,NNW,328,1.0,5.0,89,0.00,,,0.00,,2013-08-03 03:43:00,
2013-08-02 23:53:00,80.0,76.0,30.04,West,271,1.0,3.0,89,0.00,,,0.00,,2013-08-03 03:53:00,